Location: Unspecified
(0.0000°N, 0.0000°E)
Time: 07:37:24
(UTC+00:00)

S-56A Canister/Altair - Pass Details

Date: 21 December 2018
Orbit: 633 x 2499 km, 38.9° (Epoch: 16 June)

Event Time Altitude Azimuth Distance (km) Brightness Sun altitude
Rises 06:14:57 0° 336° (NNW) 5,565 11.5 3.9°
Reaches altitude 10° 06:20:02 10° 352° (N) 4,822 11.3 5.1°
Maximum altitude 06:29:27 20° 35° (NE) 4,291 11.5 7.2°
Drops below altitude 10° 06:39:20 10° 76° (ENE) 5,130 12.7 9.5°
Sets 06:44:53 0° 91° (E) 6,023 13.5 10.7°
